CW5467 Weather Reports


time (UTC)temp
C
wind
direction
speed
KPH
gust
KPH
rain 1hr
cm
rain 24hr
cm
rain mn
cm
humidity
%
barometer
mb
20260503055003 4 179 6.4 11.3 0.00 0.00 0.00 59 1015.8
20260503052955 4 194 6.4 9.7 0.00 0.00 0.00 61 1016.1
20260503050958 4 180 4.8 6.4 0.00 0.00 0.00 63 1016.3
20260503050000 4 167 4.8 8.0 0.00 0.00 0.00 61 1016.4
20260503044958 5 198 4.8 9.7 0.00 0.00 0.00 58 1016.5
20260503042956 5 198 4.8 9.7 0.00 0.00 0.00 57 1016.5
20260503041958 5 188 4.8 8.0 0.00 0.00 0.00 57 1016.7
20260503040957 5 184 4.8 6.4 0.00 0.00 0.00 57 1016.9
20260503035959 5 207 3.2 8.0 0.00 0.00 0.00 57 1016.8
20260503034959 5 218 4.8 6.4 0.00 0.00 0.00 60 1016.9
20260503033958 5 202 3.2 8.0 0.00 0.00 0.00 61 1016.8
20260503032959 5 213 8.0 9.7 0.00 0.00 0.00 56 1016.9
20260503031001 4 188 1.6 4.8 0.00 0.00 0.00 62 1017.1
20260503030003 4 188 1.6 4.8 0.00 0.00 0.00 64 1017.2
20260503024958 4 188 3.2 4.8 0.00 0.00 0.00 65 1017.3
20260503023958 4 188 1.6 3.2 0.00 0.00 0.00 64 1017.2
20260503022959 4 188 1.6 6.4 0.00 0.00 0.00 62 1017.4
20260503022002 5 199 4.8 8.0 0.00 0.00 0.00 59 1017.4
20260503020959 4 224 4.8 8.0 0.00 0.00 0.00 60 1017.5
20260503015959 4 232 4.8 6.4 0.00 0.00 0.00 62 1017.4
20260503015003 4 232 4.8 8.0 0.00 0.00 0.00 62 1017.5
20260503012959 5 243 3.2 4.8 0.00 0.00 0.00 62 1017.2
20260503011958 5 243 4.8 6.4 0.00 0.00 0.00 61 1017.3
20260503010957 5 243 6.4 8.0 0.00 0.00 0.00 58 1017.3
20260503010003 6 243 4.8 6.4 0.00 0.00 0.00 56 1017.4
20260503005000 6 262 4.8 9.7 0.00 0.00 0.00 55 1017.3
20260503003959 6 275 3.2 9.7 0.00 0.00 0.00 56 1017.4
20260503002958 7 275 4.8 11.3 0.00 0.00 0.00 51 1017.1
20260503002000 7 271 8.0 12.9 0.00 0.00 0.00 49 1017.2
20260503001002 8 288 9.7 12.9 0.00 0.00 0.00 47 1017.1
20260503000003 8 288 11.3 17.7 0.00 0.00 0.00 45 1017.1
20260502235000 8 285 6.4 16.1 0.00 0.00 0.00 46 1017.2
20260502234001 8 292 14.5 19.3 0.00 0.00 0.00 43 1017.2
20260502232959 8 292 9.7 16.1 0.00 0.00 0.00 41 1017.3
20260502232000 9 315 9.7 17.7 0.00 0.00 0.00 41 1017.3
20260502231003 9 343 11.3 22.5 0.00 0.00 0.00 39 1017.3
20260502230003 9 281 16.1 24.1 0.00 0.00 0.00 41 1017.5
20260502224000 9 290 14.5 20.9 0.00 0.00 0.00 41 1017.5
20260502223002 9 307 16.1 27.4 0.00 0.00 0.00 39 1017.6
20260502222001 9 299 11.3 24.1 0.00 0.00 0.00 42 1017.7
20260502220958 9 342 16.1 27.4 0.00 0.00 0.00 38 1017.8
20260502220005 9 286 16.1 25.7 0.00 0.00 0.00 40 1017.8
20260502215000 9 323 17.7 30.6 0.00 0.00 0.00 42 1017.9
20260502214004 9 298 14.5 25.7 0.00 0.00 0.00 42 1017.9
20260502213002 9 292 16.1 27.4 0.00 0.00 0.00 41 1017.9
20260502212000 9 311 19.3 25.7 0.00 0.00 0.00 41 1017.9
20260502210958 9 343 19.3 29.0 0.00 0.00 0.00 45 1018.0
20260502210003 9 314 22.5 30.6 0.00 0.00 0.00 45 1018.0
20260502204959 10 334 16.1 25.7 0.00 0.00 0.00 47 1018.0
20260502202959 10 310 19.3 25.7 0.00 0.00 0.00 48 1018.2
20260502201957 9 342 19.3 29.0 0.00 0.00 0.00 45 1018.4
20260502201002 9 319 19.3 30.6 0.00 0.00 0.00 48 1018.4
20260502195959 9 274 20.9 32.2 0.00 0.00 0.00 44 1018.5
20260502195002 10 306 19.3 30.6 0.00 0.00 0.00 50 1018.6
20260502193959 9 325 20.9 33.8 0.00 0.00 0.00 46 1018.8
20260502192958 9 335 17.7 25.7 0.00 0.00 0.00 48 1018.9
20260502192003 9 301 16.1 25.7 0.00 0.00 0.00 50 1019.0
20260502190002 8 299 19.3 30.6 0.00 0.00 0.00 48 1019.0
20260502185002 8 317 20.9 29.0 0.00 0.00 0.00 49 1019.0
20260502183958 8 323 19.3 25.7 0.00 0.00 0.00 51 1019.1
20260502183002 8 329 16.1 25.7 0.00 0.00 0.00 55 1019.1
20260502182000 8 296 20.9 27.4 0.00 0.00 0.00 54 1019.2
20260502181001 8 300 11.3 24.1 0.00 0.00 0.00 51 1019.2
20260502164001 7 310 9.7 19.3 0.00 0.00 0.00 59 1020.0
20260502163001 7 316 11.3 22.5 0.00 0.00 0.00 58 1019.9
20260502161000 7 332 11.3 16.1 0.00 0.00 0.00 58 1020.2
20260502152000 6 341 8.0 16.1 0.00 0.00 0.00 59 1020.0
20260502150957 6 338 9.7 20.9 0.00 0.00 0.00 59 1020.1
20260502123001 2 5 8.0 14.5 0.00 0.00 0.00 82 1020.4
20260502122001 2 348 8.0 12.9 0.00 0.00 0.00 84 1020.4
20260502120957 2 161 4.8 12.9 0.00 0.00 0.00 86 1020.3
20260502114958 1 316 4.8 8.0 0.00 0.00 0.00 88 1020.2
20260502113958 0 282 0.0 0.0 0.00 0.00 0.00 89 1020.1
20260502110957 -1 292 0.0 3.2 0.00 0.00 0.00 89 1019.9
20260502110002 0 67 0.0 1.6 0.00 0.00 0.00 89 1019.9
20260502105001 0 277 0.0 1.6 0.00 0.00 0.00 88 1019.9
20260502104001 0 302 0.0 3.2 0.00 0.00 0.00 85 1019.9
20260502102959 0 67 0.0 1.6 0.00 0.00 0.00 84 1019.9
20260502102001 0 67 0.0 0.0 0.00 0.00 0.00 84 1019.9
20260502100959 0 300 0.0 0.0 0.00 0.00 0.00 83 1019.9
20260502091000 1 300 1.6 4.8 0.00 0.00 0.00 83 1019.6
20260502070959 1 251 0.0 0.0 0.00 0.00 0.00 85 1019.2
20260502065957 1 251 0.0 0.0 0.00 0.00 0.00 85 1019.4
20260502064959 1 251 0.0 0.0 0.00 0.00 0.00 84 1019.4